STARS (KUKAI)

导读

STARS(别称KUKAI)是日本研发的小型实验卫星,于2009年1月23日搭乘H2A 15号火箭,从种子岛宇宙中心发射升空,作为本次发射的7颗搭载小卫星之一进入太阳同步轨道。它是日本香川大学开发的空间系绳实验卫星,用于验证空间系绳相关技术,为后续日本空间系绳技术发展积累了基础数据,推动了日本在空间 tether 技术领域的研究进程。

基本信息
目录编号:
33498
目录名称:
STARS (KUKAI)
国际标识:
2009-002G
轨道中心:
EARTH
卫星名称:
STARS (KUKAI)
卫星全名:
--
卫星状态:
在轨 (已飞行6433 天)
发射日期:
2009-01-23 UTC
国别 :
日本 (JP)
星等 :
--
轨道信息
数据来源 国际轨道数据
星历时间: 2026-09-04T22:42:24+0800
6小时前
查看轨道信息
半长轴: 6956.701km
偏心率: 0.0006491
轨道倾角: 98.160°
近地点辐角 267.759°
升交点赤经 198.213°
平近点角 92.289°
近地点: 574.048km
远地点: 583.08km
周期: 96.242分钟
每日圈数: 14.962282
详细信息
使用方式:
暂无
2D轨道图
3D轨道图
轨道高度分析图
轨道倾角分析图
轨道综合分析图
查看轨道综合分析图
交会数据列表
事件ID 空间交会对象 最接近时刻(TCA) 交会距离 交会风险概率(CRP) 交会风险指数(CRI) 操作
CDM_260904-212603-349805-448723
2026-09-04T
21:26:02+0000
2.049 km
极远距离
2.596736E-6 低风险 0.43
CDM_260906-040803-349804-352922
2026-09-06T
04:08:59+0000
2.292 km
极远距离
2.053464E-6 低风险 0.41
CDM_260905-160203-349806-175222
OBJECT T (61752)
2026-09-05T
16:02:20+0000
2.824 km
极远距离
1.326442E-6 低风险 0.37
CDM_260904-204403-349806-325924
2026-09-04T
20:44:35+0000
2.799 km
极远距离
9.851792E-7 极低风险 0.35